Regional Weather Roundup
Issued by NWS Charleston, SC

Current Version | Previous Version | Text Only | Print | Product List | Glossary Off
Versions: 1 2 3 4 5 6 7 8 9 10 11 12 13 14 15 16 17 18 19 20 21 22 23 24 25 26 27 28 29 30 31 32 33 34 35 36 37 38 39 40 41 42 43 44 45 46 47 48 49 50

000
ASUS42 KCHS 230610
RWRCHS
REGIONAL WEATHER ROUNDUP
NATIONAL WEATHER SERVICE CHARLESTON SC
200 AM EDT WED APR 23 2014

NOTE: "FAIR" INDICATES FEW OR NO CLOUDS BELOW 12,000 FEET WITH NO
SIGNIFICANT WEATHER AND/OR OBSTRUCTIONS TO VISIBILITY.

NOT ALL STATIONS ARE QUALITY CONTROLLED BY THE NATIONAL
WEATHER SERVICE. USE DATA WITH CAUTION...ESPECIALLY
DEWPOINT OBSERVATIONS.

SCZ027-030-031-034>040-042>050-230700-
...SOUTH CAROLINA...

CITY           SKY/WX    TMP DP  RH WIND       PRES   REMARKS
N CHARLESTON   FAIR      65  61  87 W7        29.79S
6HR MIN TEMP:  65; 6HR MAX TEMP:  71; 6HR PCP:  0.02;

WATERFRONT PRK   N/A     66 N/A N/A W7          N/A
FORT JOHNSON   NOT AVBL
MOUNT PLEASANT LGT RAIN  64  63  94 W6        29.78F
JOHNS ISLAND   CLEAR     66  63  88 W5        29.79F
PINOPOLIS        N/A     66  63  88 W10       29.71S
MONCKS CORNER  FAIR      64  64 100 CALM      29.78S
SUMMERVILLE    NOT AVBL
BEAUFORT MCAS  FAIR      65  60  84 NW9       29.80F
6HR MIN TEMP:  65; 6HR MAX TEMP:  74; 6HR PCP:  0.02;

BEAUFORT ARPT  FAIR      64  61  88 W10G17    29.80S
HILTON HEAD IS NOT AVBL
GEORGETOWN     NOT AVBL
WALTERBORO     FAIR      63 N/A N/A W8        29.80F
ORANGEBURG     FAIR      62  58  86 W7        29.79F
6HR MIN TEMP:  61; 6HR MAX TEMP:  65;

BARNWELL       FAIR      61  61 100 W5        29.81F
AIKEN          FAIR      61  61 100 W7        29.84S FOG
MANNING        FAIR      63 N/A N/A CALM      29.77F
KINGSTREE      NOT AVBL
COLUMBIA       FAIR      60  59  96 W5        29.78S FOG
6HR MIN TEMP:  60; 6HR MAX TEMP:  67;

SUMTER         FAIR      61  60  96 W8        29.75F
6HR MIN TEMP:  61; 6HR MAX TEMP:  65; 6HR PCP: TRACE;

FLORENCE       FAIR      63  60  90 W6        29.75F
6HR MIN TEMP:  63; 6HR MAX TEMP:  69;

MYRTLE BEACH   FAIR      64  59  82 W9        29.75S
N MYRTLE BEACH FAIR      65  59  81 W6        29.74S
6HR MIN TEMP:  65; 6HR MAX TEMP:  70;


$$

GAZ063-065-086>088-099>101-113>116-118-119-134-136>141-150-230700-
...GEORGIA...

CITY           SKY/WX    TMP DP  RH WIND       PRES   REMARKS
SAVANNAH ARPT  FAIR      63  60  90 W6        29.83S FOG
6HR MIN TEMP:  63; 6HR MAX TEMP:  77; 6HR PCP:  0.16;

HUNTER AAF     FAIR      62  62 100 W3        29.81S
6HR MIN TEMP:  62; 6HR MAX TEMP:  76; 6HR PCP:  0.10;

FORT STEWART   FAIR      61  61 100 W6        29.82F
6HR MIN TEMP:  61; 6HR MAX TEMP:  77; 6HR PCP:  0.08;

STATESBORO     NOT AVBL
SYLVANIA       FAIR      64  62  91 W6        29.83S FOG
CLAXTON        FAIR     N/A N/A N/A CALM      29.84F HAZE
THOMSON        FAIR      60  60 100 W5        29.87S
AUGUSTA-BUSH   FAIR      57  55  93 CALM      29.81F
6HR MIN TEMP:  56; 6HR MAX TEMP:  67; 6HR PCP: TRACE;

AUGUSTA-DANIEL FAIR      64  60  87 W6        29.82F
SWAINSBORO     CLOUDY    61  61 100 W5        29.85F FOG
VIDALIA        CLOUDY    63  61  94 SW5       29.84F FOG
ALMA           FAIR      61  58  90 CALM      29.86F FOG
6HR MIN TEMP:  61; 6HR MAX TEMP:  75;

WAYCROSS       NOT AVBL
JESUP          FAIR      61  61 100 W3        29.85F
BRUNSWICK      FAIR      64  61  88 W6        29.85F
SAINT SIMONS   LGT RAIN  65  61  87 SW7       29.85S
6HR MIN TEMP:  65; 6HR MAX TEMP:  75; 6HR PCP: TRACE;


$$

SCZ027-028-034-036>038-045-046-048>050-GAZ119-141-230700-
...LAKE AND SUPPLEMENTAL COASTAL OBSERVATIONS...

STATION/POSITION TIME  TEMP    WIND        PRES    WAVE   SWELL
                       AIR SEA DIR/SP/G            HT/PER HT/PER/DIR
                 (UTC) (F)     (DEG/KT/KT) (MB)    (FT/S) (FT/S/D)
UPR LAKE MARION  NOT AVBL
WINYAH BAY       0500   66     270/  4     1008.0S
LAKE MURRAY      0500   62     280/  6/  9 1008.1F
ACE BASIN NERRS  0500   66     280/  2     1009.0S
FORT PULASKI     NOT AVBL
SAPELO ISLAND    0500   66     250/  5     1010.0F

$$

ANZ835-935-AMZ111-154-330-350-352-354-374-450-454-472-230700-
...C-MAN AND BUOY OBSERVATIONS...

STATION/POSITION TIME  TEMP    WIND        PRES    WAVE   SWELL
                       AIR SEA DIR/SP/G            HT/PER HT/PER/DIR
                 (UTC) (F)     (DEG/KT/KT) (MB)    (FT/S) (FT/S/D)
FOLLY BEACH CMAN 0500   67     250/  4/  5 1009.2F
BUOY 41004       0600   68 70  260/ 12/ 14 1008.0F   3/ 9   2/ 9
BUOY 41008       0600   65 64  270/  8/  8 1009.9F   2/ 8   2/100/ 8
5E ST. MARYS GA  0600      66                N/A     2/ 9
FRYING PAN BUOY  0600   68 67  270/  8/ 10 1006.4F   5/ 6   5/220/ 6
BUOY 41025       0600   69 76  270/ 16/ 19 1003.4F   6/ 5   3/100/10
CAPE LOOKOUT NC  0500   63     240/ 11/ 14 1005.2S
BUOY 41002       NOT AVBL
BUOY 41010       0600   74 75  230/  8/ 10 1011.6F   5/ 9   5/ 50/ 9
BUOY 41012       NOT AVBL
ST AUGUSTINE FL  0600   65     270/  9/ 12 1012.2F
CAPERS NEARSHORE NOT AVBL
FRIPP NEARSHORE  0500   65     290/  6/  8   N/A


$$



USA.gov is the U.S. government's official web portal to all federal, state and local government web resources and services.